TimeEST,TemperatureF,Dew PointF,Humidity,Sea Level PressureIn,VisibilityMPH,Wind Direction,Wind SpeedMPH,Gust SpeedMPH,PrecipitationIn,Events,Conditions,WindDirDegrees,DateUTC
12:13 AM,51.8,51.8,100,30.07,1.2,Calm,Calm,-,N/A,,Scattered Clouds,0,2012-11-21 05:13:00
12:16 AM,51.8,51.8,100,30.06,3.0,Calm,Calm,-,N/A,,Partly Cloudy,0,2012-11-21 05:16:00
12:21 AM,50.0,50.0,100,30.07,1.5,Calm,Calm,-,N/A,,Partly Cloudy,0,2012-11-21 05:21:00
12:23 AM,50.0,50.0,100,30.06,0.8,Calm,Calm,-,N/A,,Mist,0,2012-11-21 05:23:00
12:32 AM,48.2,48.2,100,30.07,0.2,Calm,Calm,-,N/A,Fog,Fog,0,2012-11-21 05:32:00
12:53 AM,51.1,50.0,96,30.06,1.0,Calm,Calm,-,N/A,,Partly Cloudy,0,2012-11-21 05:53:00
1:07 AM,48.2,48.2,100,30.06,0.5,Calm,Calm,-,N/A,Fog,Fog,0,2012-11-21 06:07:00
1:53 AM,48.9,48.9,100,30.05,0.2,Calm,Calm,-,N/A,Fog,Fog,0,2012-11-21 06:53:00
2:02 AM,48.2,48.2,100,30.05,0.2,Calm,Calm,-,N/A,Fog,Fog,0,2012-11-21 07:02:00
2:42 AM,48.2,48.2,100,30.05,1.0,Calm,Calm,-,N/A,,Scattered Clouds,0,2012-11-21 07:42:00
2:45 AM,48.2,48.2,100,30.05,3.0,Calm,Calm,-,N/A,,Partly Cloudy,0,2012-11-21 07:45:00
2:53 AM,48.0,48.0,100,30.05,3.0,Calm,Calm,-,N/A,,Clear,0,2012-11-21 07:53:00
2:55 AM,48.2,46.4,93,30.05,1.8,Calm,Calm,-,N/A,,Clear,0,2012-11-21 07:55:00
2:59 AM,48.2,46.4,93,30.05,0.8,Calm,Calm,-,N/A,,Clear,0,2012-11-21 07:59:00
3:17 AM,48.2,46.4,93,30.06,2.0,NNW,4.6,-,N/A,,Clear,330,2012-11-21 08:17:00
3:24 AM,48.2,48.2,100,30.05,10.0,NNW,3.5,-,N/A,,Clear,330,2012-11-21 08:24:00
3:53 AM,51.1,50.0,96,30.06,10.0,NNW,3.5,-,N/A,,Clear,340,2012-11-21 08:53:00
4:53 AM,48.9,48.0,97,30.06,5.0,Calm,Calm,-,N/A,,Partly Cloudy,0,2012-11-21 09:53:00
4:57 AM,48.2,48.2,100,30.06,1.8,Calm,Calm,-,N/A,,Partly Cloudy,0,2012-11-21 09:57:00
5:00 AM,48.2,48.2,100,30.06,0.8,Calm,Calm,-,N/A,,Partly Cloudy,0,2012-11-21 10:00:00
5:13 AM,48.2,46.4,93,30.07,1.8,Calm,Calm,-,N/A,,Clear,0,2012-11-21 10:13:00
5:15 AM,48.2,46.4,93,30.07,3.0,Calm,Calm,-,N/A,,Clear,0,2012-11-21 10:15:00
5:34 AM,48.2,48.2,100,30.06,1.8,Calm,Calm,-,N/A,,Clear,0,2012-11-21 10:34:00
5:41 AM,48.2,48.2,100,30.07,1.0,Calm,Calm,-,N/A,,Clear,0,2012-11-21 10:41:00
5:53 AM,48.0,48.0,100,30.06,0.5,Calm,Calm,-,N/A,Fog,Fog,0,2012-11-21 10:53:00
6:51 AM,48.2,48.2,100,30.08,1.8,Calm,Calm,-,N/A,,Mostly Cloudy,0,2012-11-21 11:51:00
6:53 AM,48.0,48.0,100,30.08,1.5,Calm,Calm,-,N/A,,Mostly Cloudy,0,2012-11-21 11:53:00
7:09 AM,46.4,46.4,100,30.09,0.5,Calm,Calm,-,N/A,Fog,Fog,0,2012-11-21 12:09:00
7:16 AM,48.2,46.4,93,30.09,1.8,Calm,Calm,-,N/A,,Clear,0,2012-11-21 12:16:00
7:18 AM,48.2,48.2,100,30.09,3.0,Calm,Calm,-,N/A,,Clear,0,2012-11-21 12:18:00
7:53 AM,51.1,51.1,100,30.09,10.0,Calm,Calm,-,N/A,,Clear,0,2012-11-21 12:53:00
8:53 AM,60.1,54.0,80,30.11,10.0,North,4.6,-,N/A,,Clear,360,2012-11-21 13:53:00
9:53 AM,66.0,53.1,63,30.12,10.0,North,9.2,-,N/A,,Clear,360,2012-11-21 14:53:00
11:53 AM,73.0,48.0,41,30.09,10.0,NNE,10.4,-,N/A,,Clear,20,2012-11-21 16:53:00
12:53 PM,73.9,48.0,40,30.06,10.0,NE,11.5,-,N/A,,Clear,40,2012-11-21 17:53:00
1:53 PM,73.9,46.9,38,30.04,9.0,NNE,8.1,-,N/A,,Clear,20,2012-11-21 18:53:00
2:53 PM,75.0,46.9,37,30.03,10.0,NNE,11.5,18.4,N/A,,Clear,20,2012-11-21 19:53:00
3:53 PM,73.0,51.1,46,30.03,10.0,NW,11.5,-,N/A,,Clear,320,2012-11-21 20:53:00
4:53 PM,68.0,52.0,56,30.04,10.0,NW,10.4,-,N/A,,Clear,310,2012-11-21 21:53:00
5:53 PM,64.0,52.0,65,30.05,10.0,NW,6.9,-,N/A,,Clear,310,2012-11-21 22:53:00
6:53 PM,61.0,53.1,75,30.06,10.0,NW,3.5,-,N/A,,Clear,320,2012-11-21 23:53:00
7:53 PM,55.0,52.0,89,30.08,10.0,Calm,Calm,-,N/A,,Clear,0,2012-11-22 00:53:00
8:53 PM,54.0,52.0,93,30.10,10.0,North,3.5,-,N/A,,Clear,360,2012-11-22 01:53:00
9:53 PM,54.0,52.0,93,30.12,10.0,NNE,3.5,-,N/A,,Clear,30,2012-11-22 02:53:00
10:40 PM,50.0,48.2,94,30.13,1.5,Calm,Calm,-,N/A,,Clear,0,2012-11-22 03:40:00
10:48 PM,48.2,48.2,100,30.13,0.5,Calm,Calm,-,N/A,Fog,Fog,0,2012-11-22 03:48:00
10:53 PM,46.9,46.9,100,30.13,0.2,Calm,Calm,-,N/A,Fog,Fog,0,2012-11-22 03:53:00
11:19 PM,48.2,46.4,93,30.13,1.0,Calm,Calm,-,N/A,,Mist,0,2012-11-22 04:19:00
11:24 PM,48.2,46.4,93,30.13,0.8,Calm,Calm,-,N/A,,Mist,0,2012-11-22 04:24:00
11:53 PM,46.0,46.0,100,30.12,0.2,Calm,Calm,-,N/A,Fog,Fog,0,2012-11-22 04:53:00